Regional Weather Roundup
Issued by NWS

Home | Current Version | Previous Version | Graphics & Text | Print | Product List | Glossary On
Versions: 1 2 3 4 5 6 7 8 9 10 11 12 13 14 15 16 17 18 19 20 21 22 23 24 25 26 27 28 29 30 31 32 33 34 35 36 37 38 39 40 41 42 43 44 45 46 47 48 49 50
000
ASUS45 KPSR 310610
RWRAZ

ARIZONA HOURLY REGIONAL WEATHER ROUNDUP
NATIONAL WEATHER SERVICE PHOENIX AZ
1100 PM MST THU JUL 30 2015

NOTE: FAIR INDICATES FEW OR NO CLOUDS BELOW 12,000 FEET WITH NO
SIGNIFICANT WEATHER AND/OR OBSTRUCTIONS TO VISIBILITY.

AZZ001>003-036-310700-
NORTHWEST ARIZONA

CITY           SKY/WX    TMP DP  RH WIND       PRES   REMARKS
BULLHEAD CITY  CLOUDY    88  66  48 CALM      29.93F
KINGMAN        CLOUDY    77  57  50 SE6       30.14R
6HR MIN TEMP:  76; 6HR MAX TEMP:  85; 6HR PCP: TRACE;

$$

AZZ004>008-015-016-018-310700-
NORTH CENTRAL ARIZONA

CITY           SKY/WX    TMP DP  RH WIND       PRES   REMARKS
GRAND CANYON   CLOUDY    68  47  46 CALM      30.40R
6HR MIN TEMP:  68; 6HR MAX TEMP:  78;

WILLIAMS       CLOUDY    66  52  59 S10       30.46S
PRESCOTT       PTCLDY    70  57  63 S3        30.27S
6HR MIN TEMP:  70; 6HR MAX TEMP:  83;

FLAGSTAFF      MOCLDY    55  54  96 CALM      30.44S
6HR MIN TEMP:  55; 6HR MAX TEMP:  70; 6HR PCP: TRACE;

PAYSON         CLEAR     73  57  56 NE5       30.30S HAZE
PAGE           MOCLDY    84  50  30 S10       30.19R
6HR MIN TEMP:  84; 6HR MAX TEMP:  95;

$$

AZZ009>014-017-310700-
NORTHEAST ARIZONA

CITY           SKY/WX    TMP DP  RH WIND       PRES   REMARKS
WINSLOW        CLOUDY    73  59  61 CALM      30.29R
6HR MIN TEMP:  73; 6HR MAX TEMP:  85;

SAINT JOHNS    PTCLDY    65  60  84 SW3       30.33R
6HR MIN TEMP:  65; 6HR MAX TEMP:  79;

SHOW LOW       CLEAR     61  55  82 CALM      30.40S
$$

AZZ023-310700-
GREATER PHOENIX AREA

CITY           SKY/WX    TMP DP  RH WIND       PRES   REMARKS
PHOENIX        MOCLDY    98  58  26 NW12      29.91S
6HR MIN TEMP:  98; 6HR MAX TEMP: 105;

LUKE AFB       PTCLDY    95  61  31 NW7       29.91F
DEER VALLEY    PTCLDY    94  58  29 CALM      29.95S
6HR MIN TEMP:  94; 6HR MAX TEMP: 102;

SCOTTSDALE     PTCLDY    96  58  27 CALM      29.97R
6HR MIN TEMP:  95; 6HR MAX TEMP: 102;

MESA-GATEWAY   PTCLDY    93  55  27 CALM      29.97R
$$

AZZ027-028-310700-
SOUTHWEST MARICOPA COUNTY AND PINAL COUNTY

CITY           SKY/WX    TMP DP  RH WIND       PRES   REMARKS
CASA GRANDE    MOCLDY    93  55  27 CALM      29.96R
6HR MIN TEMP:  93; 6HR MAX TEMP: 102;

GILA BEND      PTCLDY    95  61  32 SW10      29.92R
6HR MIN TEMP:  95; 6HR MAX TEMP: 106;

$$

AZZ503-504-507>509-310700-
SOUTHEAST ARIZONA

CITY           SKY/WX    TMP DP  RH WIND       PRES   REMARKS
TUCSON         CLOUDY    89  62  40 S6        30.09R
6HR MIN TEMP:  89; 6HR MAX TEMP:  98;

DAVIS-MONTHAN  MOCLDY    85  65  51 SE10      30.08R
6HR MIN TEMP:  85; 6HR MAX TEMP:  97; 6HR PCP: TRACE;

NOGALES        CLOUDY    78  61  55 N5        30.19R
6HR MIN TEMP:  76; 6HR MAX TEMP:  92;

SIERRA VISTA   LGT RAIN  77  60  54 SW6       30.26R
6HR MIN TEMP:  75; 6HR MAX TEMP:  86; 6HR PCP: TRACE;

DOUGLAS          N/A    N/A N/A N/A MISG      30.20S
SAFFORD        PTCLDY    84  58  40 E7        30.11R
6HR MIN TEMP:  84; 6HR MAX TEMP:  95;

$$

AZZ020-021-025-026-031-310700-
SOUTHWEST ARIZONA

CITY           SKY/WX    TMP DP  RH WIND       PRES   REMARKS
YUMA           PTCLDY    95  65  37 N9        29.89F
6HR MIN TEMP:  95; 6HR MAX TEMP: 108; 6HR PCP: TRACE;

$$

CAZ031-033-041-043-047-048-061-310700-
SOUTHERN CALIFORNIA

CITY           SKY/WX    TMP DP  RH WIND       PRES   REMARKS
DOWNTOWN L.A.  CLEAR     70  64  81 W3        30.02R
6HR MIN TEMP:  70; 6HR MAX TEMP:  78;

L.A. AIRPORT   PTCLDY    69  66  90 SW7       30.03R
6HR MIN TEMP:  69; 6HR MAX TEMP:  74;

SAN DIEGO      CLOUDY    71  64  78 SW3       30.05R
6HR MIN TEMP:  71; 6HR MAX TEMP:  75;

BURBANK        CLEAR     75  62  64 S5        30.03R
6HR MIN TEMP:  75; 6HR MAX TEMP:  88;

ONTARIO        CLEAR     76  65  68 VRB7      30.03R
6HR MIN TEMP:  76; 6HR MAX TEMP:  92;

RIVERSIDE      CLEAR     77  65  66 W5        30.03R
6HR MIN TEMP:  77; 6HR MAX TEMP:  91;

PALM SPRINGS   PTCLDY    92  65  40 W6        29.95F
6HR MIN TEMP:  91; 6HR MAX TEMP: 105; 6HR PCP: TRACE;

EL CENTRO NAS  PTCLDY    92  64  39 S3        29.89S
6HR MIN TEMP:  90; 6HR MAX TEMP: 106;

IMPERIAL       CLEAR     93  64  38 S6        29.87S
6HR MIN TEMP:  91; 6HR MAX TEMP: 107;

NEEDLES        MOCLDY    85  70  60 SW7       29.94F
6HR MIN TEMP:  85; 6HR MAX TEMP:  89; 6HR PCP: TRACE;

$$

NVZ020-UTZ003-310700-
SOUTHERN NEVADA-UTAH

CITY           SKY/WX    TMP DP  RH WIND       PRES   REMARKS
LAS VEGAS      CLOUDY    92  53  26 SW9       30.00F
6HR MIN TEMP:  92; 6HR MAX TEMP: 104;

SALT LAKE CITY PTCLDY    73  32  22 S7        30.20F
6HR MIN TEMP:  72; 6HR MAX TEMP:  92;

$$

NMZ009-TXZ055-310700-
NEW MEXICO-WEST TEXAS

CITY           SKY/WX    TMP DP  RH WIND       PRES   REMARKS
ALBUQUERQUE    CLOUDY    73  57  57 E7        30.36R
6HR MIN TEMP:  72; 6HR MAX TEMP:  80; 6HR PCP: TRACE;

EL PASO        CLOUDY    80  63  55 E6        30.19S
6HR MIN TEMP:  79; 6HR MAX TEMP:  91; 6HR PCP: TRACE;

$$


........................KEY........................
SKY/WX - SKY CONDITION/WEATHER
TMP    - TEMPERATURE IN FAHRENHEIT
DP     - DEW POINT IN FAHRENHEIT
RH     - RELATIVE HUMIDITY IN PERCENT
WIND   - DIRECTION AND SPEED IN MILES PER HOUR (MPH)
VRB    - VARIABLE WIND DIRECTION
PRES   - MEAN SEA LEVEL PRESSURE IN INCHES OF MERCURY
         F - FALLING PRESSURE   R - RISING PRESSURE
         S - STEADY PRESSURE
VSB    - VISIBILITY IN MILES
HX     - HEAT INDEX IN FAHRENHEIT
WCI    - WIND CHILL INDEX IN FAHRENHEIT
TC     - TEMPERATURE IN CELSIUS WHICH IS ALSO KNOWN AS
         TEMPERATURE IN CENTIGRADE
AFB    - AIR FORCE BASE
         LUKE AFB IS LUKE AIR FORCE BASE
         DAVIS-MONTHAN IS DAVIS-MONTHAN AIR FORCE BASE
NAS    - NAVAL AIR STATION
         EL CENTRO NAS IS EL CENTRO NAVAL AIR STATION
N/A    - NOT AVAILABLE



USA.gov is the U.S. government's official web portal to all federal, state and local government web resources and services.